GEFSMA_500_meanwind_222.txt.gz
Wind_Speed
29 29 29 29 29 29 29 30 30 30 30 31 31 31 31 32 32 32 32 32 32 32 33 33 34 35 35 36 37 38 38 39 39 40 40 41 42 43 44 44 44 45 45
31 31 31 31 31 31 31 31 31 32 32 32 32 33 33 33 33 34 34 34 34 35 35 35 36 37 38 38 39 39 40 41 41 42 43 43 44 45 46 46 46 47 47
32 32 32 32 32 32 32 33 33 33 33 33 33 33 34 34 34 35 35 35 36 36 37 38 38 38 39 40 40 41 41 42 43 44 45 46 47 47 48 48 48 48 48
33 33 33 33 33 33 33 34 34 33 34 34 34 34 34 35 35 36 36 37 37 38 38 39 39 40 41 41 42 43 43 44 45 46 47 48 49 50 50 50 50 50 50
33 34 34 34 34 34 34 34 34 34 34 34 34 35 35 36 36 36 37 38 38 39 39 40 40 41 42 44 44 45 46 47 48 49 50 51 51 52 52 52 52 52 52
33 33 33 33 33 34 34 34 34 34 34 35 35 35 36 36 37 37 38 39 39 39 39 40 41 42 43 44 46 47 48 49 49 50 51 52 53 53 54 54 54 54 54
33 34 33 33 33 33 33 33 34 34 34 34 35 36 36 37 37 38 38 39 39 39 40 41 42 43 44 45 46 47 48 48 49 50 51 52 52 53 54 54 55 55 55
33 33 33 33 33 33 33 33 34 34 35 35 36 36 37 37 38 38 39 39 40 40 41 42 43 44 45 46 46 47 47 48 48 49 50 51 52 52 52 54 55 56 56
33 33 33 32 33 33 33 34 35 35 35 36 37 37 38 38 38 38 38 39 40 41 41 43 44 44 45 46 47 48 48 49 49 49 49 50 51 52 53 55 56 57 57
32 32 32 32 33 33 34 35 36 36 37 37 38 38 39 40 39 39 39 40 40 41 42 43 44 45 45 46 47 47 48 48 49 49 50 51 52 52 54 55 56 56 56
31 32 32 32 33 34 34 35 35 36 36 36 37 37 38 39 39 40 40 40 41 42 43 44 45 45 45 46 47 47 48 49 49 50 51 51 52 53 54 54 54 54 54
32 32 32 32 32 32 33 33 34 34 35 35 36 37 37 38 39 40 41 41 42 43 44 45 46 46 46 47 48 48 49 49 50 51 52 52 53 53 52 52 52 51 52
32 32 31 31 32 32 32 33 34 35 35 36 37 38 38 39 40 41 42 43 43 44 45 46 47 47 48 48 48 49 49 50 51 53 53 54 53 52 51 51 50 51 51
32 32 32 33 33 33 34 34 35 36 37 37 38 38 39 40 41 42 43 44 44 44 46 46 47 48 48 49 49 50 50 52 53 54 54 53 52 50 50 50 50 50 50
33 33 33 33 34 34 34 35 36 37 37 38 39 40 41 41 42 43 44 45 46 46 46 46 47 48 49 50 51 51 52 54 54 54 53 52 50 50 50 49 48 47 46
34 34 34 34 35 35 35 36 37 37 38 39 40 41 41 42 43 44 45 46 47 48 48 47 47 48 49 50 51 53 53 53 53 52 52 50 49 48 47 46 44 44 44
35 35 35 36 36 36 36 37 38 38 39 40 41 41 42 43 43 44 46 47 48 49 49 47 48 48 50 51 52 52 52 52 51 50 49 46 46 45 44 43 43 42 41
36 36 36 36 37 37 37 38 39 40 40 41 42 42 42 43 44 45 46 47 48 49 49 48 48 48 50 51 52 52 51 50 49 47 45 44 43 42 41 41 40 40 39
36 36 36 36 37 38 38 39 40 41 41 42 42 42 43 44 45 46 47 48 48 48 49 48 48 49 50 51 51 50 48 47 46 44 43 42 40 40 39 39 38 38 37
36 37 37 37 38 39 39 40 41 41 41 42 42 42 43 44 45 46 47 48 48 48 48 48 48 49 49 49 48 46 45 44 43 41 40 39 39 38 38 37 37 36 35
37 37 37 38 39 39 40 40 41 41 42 41 41 42 43 44 45 46 46 47 47 47 47 48 48 48 48 46 45 44 43 40 39 38 37 37 36 36 36 36 35 34 32
38 38 38 39 39 39 40 41 41 41 41 41 42 43 43 44 45 45 45 46 47 47 47 47 47 47 45 43 42 42 40 37 35 34 34 34 34 34 33 33 32 30 29
39 38 38 39 39 40 40 41 41 41 41 42 42 43 43 44 44 45 45 45 46 46 46 46 46 44 42 41 40 39 37 35 33 32 32 32 33 32 31 30 29 29 28
38 39 39 39 40 40 41 41 41 41 42 42 42 43 43 43 43 44 44 44 45 45 44 44 42 41 40 40 39 37 34 32 32 32 32 31 30 29 28 28 28 27 26
38 39 39 39 40 41 41 41 41 41 41 41 42 42 42 42 42 42 43 43 43 42 42 41 39 39 39 38 37 34 32 31 30 30 30 29 27 27 26 25 24 24 23
38 38 39 39 39 40 41 41 41 41 41 41 41 41 41 41 41 41 41 41 41 40 39 38 38 38 37 36 33 31 30 29 29 28 28 27 26 25 23 22 22 22 21

GEFSMA_500_meanwind_228.txt.gz
Wind_Speed
29 29 29 29 28 29 29 29 29 29 30 30 30 30 31 31 31 31 32 32 32 32 32 33 33 34 34 35 35 36 37 38 38 38 38 38 39 39 39 40 41 41 42
30 30 30 30 30 30 30 30 30 30 30 31 31 31 32 32 32 33 33 33 33 33 34 34 35 35 36 37 37 38 39 40 40 39 40 40 41 40 40 41 42 43 44
31 31 31 31 31 31 30 30 31 31 31 31 31 32 32 33 33 33 33 33 33 34 34 35 36 37 37 38 39 40 41 41 41 41 42 42 42 42 43 44 44 44 45
32 32 32 31 31 31 31 31 31 31 31 31 31 32 33 33 33 33 33 33 34 34 35 36 37 38 38 39 40 41 42 42 42 43 43 43 44 45 46 47 47 47 47
33 33 32 32 32 31 31 32 32 32 31 31 31 32 33 33 33 33 33 34 35 35 36 37 38 39 39 40 41 42 43 43 44 44 44 45 46 47 48 48 49 49 49
35 34 33 33 32 32 32 31 31 31 31 31 31 32 32 33 33 34 34 35 36 36 37 38 39 39 40 41 42 43 44 44 45 45 46 47 47 47 48 49 49 50 51
35 34 34 33 33 32 31 31 31 31 31 31 32 32 33 33 34 34 35 35 36 36 37 38 39 39 40 41 42 43 44 45 45 47 48 48 48 49 49 49 51 51 51
35 34 34 33 32 32 31 31 31 31 32 31 31 32 32 33 33 34 35 35 36 37 38 39 39 39 40 41 42 43 44 45 46 47 48 49 49 50 50 51 51 51 51
35 34 33 32 32 32 32 32 32 31 32 32 33 33 34 34 34 34 35 36 37 38 39 40 41 41 42 43 43 44 45 46 47 48 49 49 50 51 51 51 52 52 52
34 33 33 33 32 32 32 31 31 32 32 33 33 34 35 36 36 35 36 37 38 39 41 42 42 43 43 44 45 46 47 47 47 48 49 50 50 51 51 52 52 52 52
34 33 33 33 32 32 32 32 32 33 33 34 34 35 35 36 37 38 37 38 39 41 42 43 43 44 45 45 46 47 48 48 49 49 50 50 50 51 52 52 53 52 52
35 34 34 33 33 33 33 33 33 33 34 35 35 36 36 37 38 39 39 40 41 41 42 43 44 45 46 47 48 48 49 49 50 51 50 51 51 52 52 52 52 50 49
36 35 35 34 34 34 34 34 34 34 35 36 36 37 37 38 39 40 41 42 42 42 43 44 45 47 48 49 49 50 50 51 51 51 51 51 51 52 51 51 49 48 47
36 36 36 35 34 34 34 35 35 35 36 36 37 37 38 39 40 42 42 43 43 43 43 45 46 48 49 50 50 51 51 52 52 51 51 51 51 50 49 48 47 46 45
37 36 35 35 35 35 35 36 36 36 37 37 38 38 39 40 41 43 43 45 45 45 44 46 47 49 50 51 51 52 52 52 51 51 52 52 51 50 48 46 45 44 44
37 36 36 35 35 35 35 36 36 37 37 37 38 39 40 41 42 43 44 45 46 47 47 47 49 50 51 52 53 53 52 52 52 52 52 52 50 47 45 44 43 42 41
36 36 36 36 36 36 36 37 37 37 37 38 38 39 40 41 43 44 45 46 47 48 48 49 50 51 52 52 52 52 52 52 51 51 50 49 47 44 43 42 41 40 39
37 37 37 37 37 36 37 38 38 38 38 38 39 40 41 42 44 44 45 47 48 49 50 50 50 50 51 52 51 50 50 50 49 48 46 45 42 41 40 39 38 37 37
37 37 37 37 37 37 38 38 38 38 38 39 40 41 42 43 44 45 46 47 48 49 50 50 50 50 50 49 49 48 48 47 46 44 42 40 39 39 38 37 36 35 36
38 37 38 37 37 38 38 38 38 38 39 39 40 42 43 44 44 45 46 47 48 49 50 49 49 48 47 46 46 46 45 44 42 40 39 37 37 37 36 36 35 35 35
38 38 37 37 37 38 38 38 38 38 39 40 40 42 43 44 45 46 47 47 48 49 49 48 47 45 45 44 44 44 42 40 38 37 36 35 35 35 34 34 34 33 33
38 39 38 38 38 38 38 37 38 39 39 40 40 42 42 43 44 45 46 46 47 47 46 45 44 44 43 43 43 42 40 38 35 34 33 33 33 32 32 31 31 32 32
38 38 38 38 38 38 38 38 38 39 39 40 40 41 42 43 43 44 44 45 46 45 44 43 43 43 43 42 42 40 39 38 35 33 32 31 31 30 30 30 30 31 31
38 38 38 38 38 38 38 39 39 39 39 39 40 41 42 42 42 43 43 44 43 42 42 42 43 43 42 41 39 38 37 36 34 31 31 30 29 29 29 29 30 31 31
37 37 37 37 37 37 38 38 38 38 38 39 39 40 41 41 42 42 42 42 41 41 41 42 42 42 40 38 37 37 35 33 31 30 30 29 27 28 29 29 30 30 30
36 36 36 36 37 37 37 37 38 38 38 38 39 39 40 41 41 40 40 39 40 40 40 40 40 39 38 36 35 34 33 31 30 29 28 28 28 28 28 28 28 28 28

GEFSMA_500_meanwind_234.txt.gz
Wind_Speed
31 30 30 29 29 29 29 29 28 28 28 28 28 27 28 28 29 30 30 30 30 31 32 32 33 33 33 34 34 34 35 36 36 37 37 38 38 38 39 39 40 40 41
32 31 31 30 30 30 30 29 29 29 29 29 29 29 29 29 30 30 30 30 31 32 32 33 33 33 34 34 35 36 36 37 38 38 39 40 40 40 41 41 42 42 43
33 32 31 31 31 31 31 30 30 31 31 31 31 30 30 30 30 31 31 32 32 32 33 33 33 34 34 35 35 36 37 38 39 40 40 41 42 42 43 43 44 44 45
33 33 32 32 32 32 32 32 32 32 32 32 31 31 31 31 31 32 32 32 32 32 33 33 33 34 34 35 36 37 38 39 40 41 42 42 43 44 44 45 45 45 46
34 34 33 33 33 33 33 33 32 32 32 32 32 32 32 32 32 32 32 32 32 32 33 33 34 35 35 36 37 38 39 40 41 42 43 44 44 44 45 45 46 46 46
35 34 34 34 33 34 33 33 33 33 33 32 32 32 33 33 32 32 32 33 33 33 33 34 35 35 36 37 39 40 40 41 43 44 44 44 44 45 45 46 47 48 48
35 35 35 35 34 34 33 33 33 33 33 33 33 33 33 33 33 33 34 34 34 34 34 35 36 37 38 39 40 41 42 43 44 45 45 45 45 46 46 47 48 49 49
36 36 36 35 35 34 34 33 33 33 34 33 33 33 33 33 33 34 34 34 34 35 36 37 38 39 40 41 41 43 44 44 45 46 46 46 47 47 48 48 49 49 50
36 37 36 35 34 34 34 33 33 33 33 33 33 33 34 34 34 33 34 35 35 36 37 38 39 40 41 42 43 44 45 46 47 47 47 47 48 49 50 50 50 50 50
37 36 36 36 35 34 33 33 33 33 33 33 34 34 35 35 35 35 34 35 35 36 38 39 40 41 43 44 45 46 46 47 48 48 49 49 49 50 50 51 51 51 50
37 37 36 36 36 35 34 33 33 33 33 33 34 35 35 36 36 36 35 35 36 37 39 40 41 43 44 45 46 47 48 49 49 50 50 50 51 51 52 52 52 51 50
37 37 37 37 36 36 35 34 34 34 34 34 34 34 35 36 36 37 36 36 37 38 39 41 42 44 45 47 48 49 50 50 50 51 52 52 52 52 52 52 51 51 50
38 37 36 36 36 36 35 35 35 34 34 34 35 35 36 36 36 36 37 38 38 39 40 42 44 45 47 48 49 50 51 51 52 52 53 53 53 52 51 51 50 49 48
38 37 36 36 35 36 36 36 35 34 35 35 35 36 36 36 36 37 38 39 40 40 41 42 44 46 48 49 50 51 52 53 53 53 53 52 51 51 50 49 48 47 45
37 37 35 35 36 36 36 36 35 35 35 35 36 36 36 36 36 37 39 40 41 42 42 43 45 47 49 50 52 53 53 54 53 52 51 50 50 49 48 48 46 44 43
37 37 35 35 36 36 35 35 35 35 35 35 36 36 36 36 37 38 39 41 42 43 44 44 46 48 50 52 53 53 53 52 51 49 49 48 48 47 46 44 43 41 40
37 37 36 35 35 36 36 35 35 35 35 36 36 37 37 37 38 39 40 41 43 44 45 46 48 50 51 52 52 52 51 49 48 48 47 46 46 45 44 42 41 39 38
37 37 36 35 34 35 35 35 35 36 36 36 37 37 37 37 39 40 41 42 43 44 46 47 49 50 51 50 50 50 49 47 47 46 46 46 45 44 42 40 39 38 36
36 37 36 35 34 35 35 35 35 36 37 37 37 37 37 38 40 41 41 42 43 45 47 48 49 49 49 49 48 47 46 46 46 46 45 44 43 41 39 38 37 36 36
37 37 36 36 35 34 34 35 35 36 36 36 37 37 38 39 40 41 42 43 44 45 47 48 48 48 48 47 46 45 44 44 44 44 43 42 41 39 38 36 36 35 35
39 37 36 36 35 35 35 35 35 35 35 36 37 37 38 40 41 42 43 43 44 46 47 48 47 46 46 45 44 43 43 42 42 42 41 41 40 38 36 35 34 33 32
39 39 38 37 36 35 36 36 36 36 36 37 37 38 39 40 41 42 43 44 45 45 46 46 45 44 43 42 42 42 42 42 41 40 39 38 37 35 34 33 33 32 32
39 38 38 37 36 36 36 36 36 36 37 37 38 39 39 40 41 41 42 43 44 44 44 44 43 43 42 41 41 42 42 41 40 39 37 35 33 33 32 32 32 31 31
38 38 38 37 37 37 37 36 36 36 37 38 38 39 39 40 40 41 41 41 42 43 43 42 42 42 41 41 42 42 41 40 38 38 36 33 31 30 30 30 30 29 29
37 37 37 37 37 37 37 37 36 36 37 37 38 39 39 39 39 40 40 41 41 41 41 41 41 41 41 41 41 40 39 37 35 34 33 30 28 27 27 28 28 28 28
36 36 36 36 36 37 37 37 36 36 36 37 37 38 38 38 39 39 40 40 39 39 40 40 39 39 39 39 38 37 36 34 32 30 28 27 26 26 26 26 27 27 25

GEFSMA_500_meanwind_240.txt.gz
Wind_Speed
30 29 29 28 27 28 27 27 27 27 27 27 28 28 28 28 28 28 29 29 30 30 31 31 31 32 32 32 33 33 33 34 34 34 35 36 37 37 37 38 38 38 38
31 31 30 30 29 29 29 29 29 29 29 29 29 30 30 30 30 30 30 30 31 31 31 31 32 32 33 33 34 34 34 35 35 36 37 37 38 38 38 39 39 40 40
32 32 31 31 31 31 31 30 30 30 30 30 31 31 31 31 31 31 31 31 31 31 32 32 32 33 33 34 34 35 35 36 36 37 38 38 39 39 39 40 40 41 42
34 33 33 33 32 32 32 31 31 31 31 31 32 32 32 32 32 32 32 32 32 32 32 33 33 33 34 35 35 36 36 37 38 38 39 40 40 40 41 42 43 43 44
35 35 34 34 33 33 33 32 32 32 32 32 33 33 33 33 33 32 32 32 32 33 33 33 34 34 35 36 36 37 38 38 39 40 41 41 41 42 43 44 45 46 46
36 36 35 34 34 33 33 33 33 33 34 34 33 34 33 33 33 33 33 33 34 34 34 35 35 36 36 37 38 38 39 40 41 42 43 43 43 44 45 46 47 47 48
38 37 37 36 36 35 35 34 35 34 35 35 35 35 34 34 34 34 34 34 34 35 35 36 36 37 38 38 39 39 40 41 42 43 44 45 45 46 46 47 48 49 49
40 39 38 37 37 37 36 36 36 36 36 36 36 35 35 35 35 34 34 34 35 35 36 36 37 38 38 39 40 40 41 42 43 44 45 46 46 47 48 49 50 51 51
40 39 38 38 38 38 37 36 36 37 37 37 37 36 36 35 35 34 34 35 36 36 36 37 37 38 39 40 40 41 42 43 44 45 46 46 47 49 50 51 51 52 52
40 39 39 38 38 37 37 37 37 37 37 37 37 37 37 37 36 35 35 36 36 36 37 38 38 39 40 40 41 42 43 45 46 47 47 48 49 50 51 51 52 52 51
40 39 39 38 37 37 36 37 37 37 37 37 37 37 37 37 37 36 36 35 36 37 38 39 40 40 41 42 43 44 45 46 48 48 49 50 51 52 53 53 53 52 52
39 39 39 39 38 37 36 36 37 37 38 38 37 38 37 37 37 37 36 36 36 37 38 39 40 41 42 43 44 45 46 48 48 49 50 51 53 53 53 52 52 53 53
38 38 39 39 39 38 37 36 36 36 38 38 38 37 37 37 37 37 37 37 37 37 38 39 41 42 43 44 45 47 48 49 49 50 51 52 53 53 52 53 53 54 53
39 40 39 38 38 39 38 37 36 37 38 38 37 37 37 37 37 37 38 38 38 38 39 40 41 43 44 45 46 48 49 49 50 51 52 53 53 53 52 53 53 52 51
39 39 40 40 39 38 37 36 36 37 37 37 37 36 36 37 37 37 38 39 39 39 39 41 42 43 45 46 47 48 49 49 51 52 52 52 52 52 51 50 50 49 48
39 39 39 39 39 38 38 37 36 37 36 36 36 36 36 36 35 36 37 39 39 40 40 41 42 44 45 46 48 49 50 51 52 51 52 51 51 50 49 48 48 48 46
40 38 38 38 37 37 37 37 37 36 36 37 37 37 37 36 37 37 38 39 39 40 41 41 43 45 46 48 48 50 50 50 50 51 51 50 49 48 48 47 47 46 45
40 39 38 37 38 37 36 37 37 37 37 37 37 36 37 37 38 38 38 39 40 41 42 42 44 46 47 48 49 49 49 49 49 49 48 48 47 47 47 46 45 44 43
40 39 38 38 37 37 37 37 37 37 37 37 37 37 37 37 37 38 39 40 41 41 42 43 45 46 47 48 48 47 48 49 48 48 47 47 46 46 46 45 43 42 40
41 40 38 38 37 37 37 38 37 37 37 36 36 37 37 37 37 38 39 40 41 42 43 44 46 46 46 46 47 47 47 47 46 46 46 46 46 45 44 42 41 39 38
40 40 39 39 38 37 37 37 37 37 37 36 36 36 36 37 37 38 39 40 41 42 43 44 45 45 45 45 46 46 46 45 44 44 45 45 45 43 42 40 39 37 35
40 39 39 38 38 37 36 36 37 37 36 36 36 36 35 36 37 38 39 40 42 42 43 43 44 44 45 45 45 45 44 43 42 42 43 43 42 40 39 37 36 34 32
39 39 38 38 38 38 37 36 36 37 37 36 36 35 35 36 37 38 39 40 41 42 43 43 43 44 44 44 43 42 42 42 42 41 40 39 38 37 35 35 33 31 31
39 38 37 37 37 37 37 36 36 36 36 36 36 36 36 38 38 38 39 39 40 41 42 42 43 43 43 42 42 41 41 41 40 39 38 37 35 34 33 32 31 30 30
39 38 37 37 36 36 36 36 36 36 35 35 36 36 37 38 38 39 38 38 39 41 42 42 42 42 42 41 40 40 40 39 37 37 36 34 33 32 31 30 30 29 29
39 39 38 37 37 37 36 36 35 35 35 35 35 36 36 37 37 38 37 38 39 40 41 41 41 40 40 39 39 39 39 37 35 34 33 32 31 30 28 27 27 28 27

GEFSMA_500_meanwind_246.txt.gz
Wind_Speed
32 32 31 30 30 28 28 26 26 26 26 26 26 26 26 26 26 26 27 28 28 29 29 29 30 30 31 31 31 31 31 31 32 33 33 34 35 35 35 36 36 36 36
34 33 32 31 31 30 30 29 27 27 27 27 27 27 27 27 28 28 28 29 30 30 30 30 30 31 31 31 31 32 32 33 33 34 34 35 36 36 37 37 37 38 39
35 34 34 33 33 32 31 30 29 28 28 28 28 28 28 29 29 29 29 30 30 30 30 31 31 31 31 32 32 33 33 34 34 35 36 36 37 38 38 39 39 41 41
36 36 35 35 34 34 33 32 31 30 29 29 29 29 29 29 30 30 30 30 31 31 31 31 32 32 32 33 34 34 35 35 35 36 37 37 38 39 40 40 41 41 41
38 37 37 36 36 35 34 33 32 32 31 30 30 30 30 30 31 31 31 31 32 32 32 32 33 33 34 34 35 36 36 36 37 37 38 39 39 40 41 42 42 42 42
38 38 37 36 36 36 35 34 34 33 32 31 31 31 31 31 32 32 32 32 33 33 33 33 34 34 35 36 36 37 37 37 38 38 39 40 41 42 42 43 43 43 44
40 39 38 38 38 37 37 36 35 34 33 32 32 32 32 32 33 33 33 33 34 34 34 35 35 36 36 37 37 38 38 38 39 40 41 41 42 44 44 44 44 45 45
41 40 40 38 39 38 38 37 35 35 34 34 34 34 33 33 34 34 34 34 34 35 36 36 36 37 37 38 38 39 39 39 40 41 42 43 44 45 45 45 46 46 47
41 41 40 39 38 38 37 37 36 35 35 35 35 35 35 34 35 35 35 35 35 36 36 36 37 38 38 38 38 39 40 40 42 43 43 44 45 46 46 46 47 48 48
42 42 42 41 39 38 37 37 36 36 36 35 35 35 36 36 36 36 36 36 36 36 36 37 38 38 38 39 39 39 40 41 42 43 44 45 46 46 47 47 48 48 48
42 42 42 42 41 39 38 37 37 37 36 36 36 36 36 37 37 36 36 36 36 37 37 38 38 39 39 40 40 40 41 42 43 44 45 46 47 47 48 48 48 48 49
43 41 41 41 41 40 39 38 37 37 37 37 37 37 37 37 36 37 37 37 37 37 37 38 38 39 40 40 40 41 42 43 44 45 46 47 47 48 49 49 49 49 51
43 42 41 40 40 39 39 39 38 38 37 38 38 38 38 37 37 38 37 37 38 38 38 38 39 40 41 41 41 42 43 43 44 46 47 48 48 48 49 49 49 50 51
44 43 43 42 41 40 39 38 38 38 38 38 38 39 40 39 37 37 37 38 38 38 38 39 40 40 41 41 43 43 44 44 45 46 47 48 47 48 49 49 49 50 50
44 43 43 42 41 40 40 38 39 39 40 40 39 39 39 40 38 38 38 38 38 39 39 40 40 41 42 42 43 44 45 45 46 47 47 47 47 47 48 48 49 49 49
43 43 42 42 41 41 40 40 38 38 40 40 40 39 39 39 38 38 39 39 40 40 40 41 41 42 42 43 44 45 45 45 45 46 46 47 47 47 47 47 47 47 46
44 42 41 41 41 41 41 42 41 40 39 39 39 39 39 38 38 39 39 39 40 41 41 41 41 42 43 44 44 45 45 45 45 45 46 46 46 46 47 46 45 45 44
45 43 41 41 41 41 42 42 41 40 40 39 38 38 38 38 38 39 39 39 40 40 40 40 41 42 43 44 44 44 44 45 45 46 46 46 46 46 45 44 44 43 42
44 44 42 41 41 41 40 40 40 40 40 40 39 37 37 38 38 38 39 39 39 40 40 41 42 42 43 43 42 43 44 45 45 46 45 45 45 45 44 43 43 42 41
43 43 43 41 41 41 41 40 40 39 39 39 39 39 38 37 37 37 37 38 38 39 40 40 41 40 40 41 41 42 43 44 44 44 44 44 44 43 43 42 42 41 40
41 41 41 41 41 40 40 40 40 39 39 38 38 38 37 36 36 36 36 36 37 38 39 39 39 38 39 40 41 42 42 43 43 43 43 43 42 42 41 41 41 40 38
39 39 40 40 39 39 39 39 40 39 39 38 37 37 36 35 35 35 36 36 36 37 38 38 37 38 39 40 40 42 42 42 42 42 41 40 40 40 40 39 38 37 36
39 39 40 40 40 40 40 40 39 38 37 37 37 36 36 35 35 35 35 36 36 37 37 37 37 38 39 40 41 42 42 41 41 40 40 39 39 39 38 37 35 34 34
39 39 39 39 39 39 38 38 39 38 37 36 36 36 36 36 36 35 35 35 36 36 36 36 37 38 39 40 42 41 41 40 39 39 40 39 37 37 35 33 32 32 32
38 38 38 39 38 39 39 38 38 37 37 37 36 36 36 36 36 35 36 35 35 35 34 35 36 37 39 41 41 40 39 39 38 38 38 36 35 34 31 29 30 30 29
37 37 37 36 36 36 37 37 36 36 36 36 36 36 35 35 35 36 36 36 35 34 34 35 37 38 40 40 39 39 38 37 37 36 35 34 32 30 27 27 28 28 27

GEFSMA_500_meanwind_252.txt.gz
Wind_Speed
33 33 32 32 32 31 30 30 29 29 28 27 26 25 25 24 24 24 25 26 26 27 27 28 29 29 29 30 30 30 31 31 31 32 32 32 33 34 34 34 35 35 35
35 34 34 33 33 32 31 31 30 30 29 28 27 26 26 26 25 26 27 27 28 28 29 29 29 30 30 31 31 32 32 32 33 33 33 34 34 35 35 35 36 37 37
35 35 35 35 34 33 33 32 31 31 30 29 27 27 28 27 27 28 28 28 29 30 30 30 30 31 31 32 32 32 33 33 34 34 35 35 36 36 37 37 38 38 38
36 35 36 36 35 34 34 33 33 32 31 30 29 29 29 29 29 29 29 30 30 31 31 31 31 32 32 33 33 33 33 34 35 35 36 36 37 38 38 39 38 38 39
37 36 36 36 35 35 34 34 33 32 32 32 31 30 30 30 29 29 30 31 31 31 32 32 32 33 34 34 34 34 34 35 35 36 37 37 38 38 39 39 39 39 40
37 36 36 36 36 36 35 35 34 34 33 33 32 30 30 29 29 30 31 32 32 32 33 33 34 34 35 35 35 35 35 36 37 37 38 38 39 39 40 40 40 40 41
38 37 36 36 36 36 36 36 35 35 35 34 33 31 30 30 30 31 32 33 34 34 34 34 35 35 35 35 35 35 36 37 38 38 39 39 40 41 41 41 41 42 42
38 37 37 37 37 37 37 36 36 35 35 35 34 33 32 31 31 32 33 34 34 34 35 35 35 35 35 36 36 37 38 38 39 39 40 41 41 42 42 42 43 43 44
39 38 38 38 39 38 36 37 38 37 37 36 35 34 34 32 32 33 33 34 35 35 35 35 35 36 36 36 36 37 38 39 40 40 41 41 42 42 43 43 44 45 45
40 40 39 39 40 39 38 37 37 38 37 36 35 36 35 35 35 34 34 35 35 35 36 36 36 36 36 37 37 37 38 39 40 41 41 42 42 43 44 44 45 45 46
42 41 40 39 39 40 39 39 38 37 37 37 36 37 37 36 36 35 35 35 35 36 36 37 37 37 37 38 38 38 39 40 41 42 42 43 43 44 44 45 46 46 47
43 43 42 40 39 40 40 39 40 38 37 36 36 36 37 38 37 36 36 37 37 37 37 37 37 37 38 39 39 40 40 42 42 42 43 43 44 44 45 46 47 47 48
45 44 44 43 42 41 40 40 40 39 38 37 36 37 38 39 38 38 38 38 37 38 38 37 37 38 39 39 40 41 42 42 43 43 43 44 44 45 46 47 47 47 48
45 45 45 44 43 43 43 41 40 39 38 38 37 38 38 38 39 39 39 38 38 37 37 38 38 39 40 41 42 42 43 43 43 43 43 44 44 45 46 47 47 48 48
45 44 44 44 43 43 43 41 40 40 39 38 37 38 38 38 39 39 39 38 38 37 37 38 39 40 41 41 42 42 43 43 43 44 44 44 45 46 46 47 47 48 48
45 45 45 44 43 43 42 42 41 40 39 39 40 39 38 39 40 40 40 39 38 38 37 38 40 40 41 41 42 42 42 42 43 43 43 44 45 46 47 48 48 48 47
43 43 45 45 44 43 43 43 42 42 40 39 40 39 39 40 40 40 40 39 39 38 38 38 39 40 41 41 41 41 41 41 42 43 44 45 46 47 48 48 47 46 45
44 44 43 43 43 43 43 42 42 42 41 40 40 40 40 40 40 39 39 39 39 38 39 38 39 39 40 41 41 40 40 41 42 43 44 45 47 48 48 47 45 44 43
43 43 43 43 43 42 41 42 42 42 41 41 41 41 40 41 40 39 39 39 39 39 39 40 39 39 40 40 40 40 40 41 42 42 44 45 46 46 46 44 43 42 42
42 42 43 42 42 42 41 41 41 40 40 40 40 40 40 40 40 39 39 39 40 40 40 39 39 39 39 39 39 39 40 40 41 42 43 44 45 44 43 41 41 41 41
41 42 42 42 41 41 41 40 41 40 40 39 38 38 38 39 39 39 39 39 40 39 39 38 38 38 38 38 39 39 40 40 41 41 42 42 42 42 41 40 40 40 40
39 40 40 40 40 40 39 39 39 40 39 38 37 37 37 38 38 38 38 39 39 38 38 39 39 38 38 39 39 39 40 40 40 41 41 40 41 40 39 38 38 38 38
37 37 37 38 40 40 39 38 38 39 38 37 35 35 36 37 37 36 37 37 37 37 37 37 37 37 37 38 38 39 40 41 40 40 39 39 39 39 37 36 36 36 36
37 36 36 36 37 38 39 39 37 36 36 36 36 36 36 37 37 36 34 34 34 35 35 35 36 37 37 37 38 39 39 39 38 39 39 38 37 36 34 34 34 34 33
35 35 34 34 35 36 38 38 37 36 36 36 36 36 36 36 35 34 34 34 34 35 35 35 35 36 36 37 38 38 37 37 36 36 36 36 34 32 31 32 31 31 31
33 33 34 34 33 34 35 35 36 36 35 35 35 35 35 34 33 33 33 34 34 34 34 34 34 34 35 36 36 36 36 35 34 34 34 33 31 31 30 29 29 28 28

GEFSMA_500_meanwind_258.txt.gz
Wind_Speed
37 37 36 35 34 33 32 31 30 30 30 29 29 29 28 28 28 28 27 27 27 27 27 28 28 28 29 29 29 30 31 31 31 32 32 32 32 32 33 34 34 34 33
38 37 37 36 35 34 33 32 32 31 30 30 30 30 29 29 29 29 29 28 28 28 28 28 29 29 30 30 30 31 31 32 32 33 33 33 33 34 34 35 35 34 34
38 38 38 38 37 36 35 34 33 32 32 32 31 31 30 30 29 30 30 29 29 30 30 30 30 30 31 31 31 32 32 33 33 33 34 35 35 35 35 36 35 35 35
40 39 38 37 36 35 34 34 33 33 32 32 32 31 31 31 31 31 31 31 31 31 31 31 31 31 32 33 32 33 33 33 34 34 35 36 37 37 37 37 36 36 36
41 40 38 37 36 35 35 35 34 34 34 33 33 32 32 32 31 32 32 32 32 32 32 32 32 33 33 34 34 34 34 34 35 35 36 37 38 38 38 38 37 37 38
42 42 39 37 37 36 36 35 35 35 34 33 33 32 32 32 32 32 32 33 32 33 33 34 34 34 34 35 35 35 35 35 35 36 37 38 39 39 39 39 39 38 39
42 42 41 38 37 38 37 36 35 35 34 34 34 33 33 33 33 33 33 33 33 34 34 35 35 35 35 36 36 36 36 36 37 37 38 39 40 39 39 39 39 39 40
43 43 42 41 39 37 37 37 37 36 35 35 35 35 35 34 34 34 34 33 34 35 35 36 36 36 37 37 37 37 37 38 38 39 39 41 40 40 40 40 40 40 40
44 43 42 42 41 39 38 37 37 37 36 37 37 37 37 36 35 35 35 35 35 35 36 37 37 37 38 38 38 38 38 39 40 40 40 41 40 40 41 41 41 41 41
46 45 44 42 42 41 38 37 38 38 37 37 38 38 38 38 37 36 36 37 37 37 37 38 38 38 38 38 38 39 39 40 40 40 41 41 41 41 41 42 41 42 42
46 45 45 44 42 41 40 39 37 37 37 37 38 38 38 38 38 38 37 37 38 38 38 38 39 39 39 39 39 39 40 41 41 41 41 41 42 42 42 41 41 42 43
47 45 45 45 44 42 41 40 39 39 39 38 38 38 38 38 38 38 38 38 39 38 39 39 38 39 39 39 40 40 40 41 41 41 41 42 42 42 42 42 42 43 44
47 46 47 46 46 44 43 42 40 40 39 38 38 37 37 37 38 39 39 39 39 39 39 38 38 38 38 39 40 40 41 41 41 42 42 42 43 43 43 43 44 45 46
46 46 46 46 46 45 43 42 41 40 40 38 37 37 37 37 38 38 38 39 39 38 38 37 38 38 39 40 40 40 41 41 42 42 42 43 43 44 44 44 45 46 46
46 45 45 47 47 46 44 42 40 40 40 39 38 37 36 37 38 38 39 40 39 38 37 37 38 38 39 39 40 40 41 41 41 42 43 43 44 45 45 44 45 45 45
46 46 45 45 46 45 45 43 42 41 40 40 38 36 35 36 36 37 38 38 37 37 36 37 38 38 38 38 39 40 40 41 42 42 43 45 45 44 43 43 45 44 43
44 45 43 44 44 44 43 44 44 43 42 42 40 39 38 37 36 36 36 36 37 38 38 37 37 37 37 38 39 39 40 40 41 42 43 43 43 42 42 43 43 42 42
43 44 45 43 43 43 43 43 43 42 43 42 42 41 39 39 37 35 35 36 36 37 37 37 37 37 37 38 38 39 39 40 40 41 41 41 40 40 41 41 40 40 41
43 43 44 44 43 43 43 43 42 41 41 41 41 40 40 39 38 36 36 36 37 37 37 37 37 37 37 37 38 38 38 39 39 40 39 38 38 39 39 40 39 40 40
43 42 42 43 43 43 44 44 43 41 40 40 40 40 39 39 38 37 38 38 38 37 37 36 36 36 36 36 37 37 37 37 38 37 37 37 37 37 38 39 39 39 39
42 42 42 42 42 42 43 43 43 41 41 41 40 39 39 38 38 38 39 39 39 38 37 37 36 36 35 35 36 36 36 37 37 36 36 36 36 37 37 38 37 37 38
40 41 41 40 39 39 40 41 41 41 41 40 40 40 39 39 38 38 38 40 40 39 39 38 37 36 35 35 35 36 37 37 36 36 36 35 35 36 36 37 37 37 37
37 38 37 37 37 37 38 39 39 39 40 40 40 40 39 39 39 39 38 39 39 39 38 38 36 36 35 35 36 36 37 37 36 35 35 35 35 35 36 36 36 35 35
35 35 35 37 37 37 37 38 38 39 39 39 38 38 38 38 39 38 38 37 37 37 36 36 36 36 36 36 35 36 36 35 34 34 34 34 34 34 34 35 35 34 33
33 34 35 36 37 37 36 36 36 37 38 38 38 37 35 35 36 37 36 36 35 35 36 35 35 35 35 34 34 34 33 32 32 32 33 33 33 33 33 33 33 32 31
33 33 34 34 35 36 35 34 35 35 36 37 36 36 34 34 34 34 35 36 35 34 34 34 33 33 32 32 32 32 31 31 31 32 32 32 32 31 30 30 30 29 29

GEFSMA_500_meanwind_264.txt.gz
Wind_Speed
40 39 37 36 36 36 36 36 36 36 35 35 34 33 32 32 31 31 30 30 30 29 29 28 29 29 29 29 29 30 30 31 31 32 32 32 32 33 34 34 34 35 35
41 40 40 39 38 37 38 38 38 37 37 36 35 34 33 33 32 32 32 31 30 30 29 29 30 30 30 31 31 31 32 32 33 33 32 32 33 34 35 35 36 36 36
42 42 42 41 40 39 39 39 39 38 37 36 36 35 33 33 32 31 32 31 31 30 30 31 30 31 31 32 32 32 33 34 34 34 34 34 35 36 36 36 37 37 37
42 43 43 42 41 40 40 39 39 38 36 35 35 34 33 32 32 31 32 31 31 31 31 31 32 32 32 33 33 34 35 35 35 35 36 36 37 37 37 37 38 38 38
43 43 43 42 42 41 40 39 38 38 37 35 35 34 34 33 33 32 32 32 33 32 31 31 32 32 33 34 34 35 35 36 36 37 37 38 38 38 38 38 38 38 39
44 43 43 43 43 42 40 39 38 38 37 36 35 35 34 34 33 33 32 33 33 32 32 32 32 33 34 35 35 35 36 37 37 38 38 39 38 38 39 39 39 40 40
44 43 44 44 43 41 41 39 37 38 38 37 35 36 36 35 34 34 33 33 33 33 33 33 33 34 35 35 36 36 37 38 38 38 39 39 39 39 40 40 41 41 42
45 44 44 45 43 42 42 40 39 38 37 37 37 37 36 37 36 35 35 35 34 34 34 34 34 35 35 36 36 37 38 39 39 39 40 40 40 40 41 42 42 43 43
45 44 44 44 43 42 41 41 40 38 37 38 38 38 38 38 38 37 36 36 35 35 35 35 35 36 36 37 37 38 39 40 39 39 40 41 41 41 42 43 43 43 43
45 44 44 44 43 43 42 42 41 40 39 39 39 39 39 39 39 38 37 37 37 36 35 35 36 36 37 38 38 39 40 40 39 40 40 40 41 42 42 42 42 42 43
46 46 45 44 44 44 43 43 42 42 41 40 39 40 40 40 39 38 37 37 37 37 36 36 36 36 38 38 38 39 39 39 40 39 40 41 41 42 42 42 42 42 42
47 47 47 46 46 45 44 44 44 43 41 40 40 40 40 40 39 38 37 37 36 37 36 36 36 37 38 39 39 39 39 39 39 39 40 41 41 41 41 41 41 41 42
46 46 45 46 46 46 45 45 45 44 43 42 41 41 41 39 39 39 39 38 37 37 37 37 37 38 38 39 39 39 39 39 39 40 40 41 41 41 41 41 41 41 42
46 46 45 46 46 46 46 46 46 45 44 43 42 41 41 40 40 40 39 39 38 37 36 36 36 37 38 38 38 38 38 38 39 40 40 41 41 41 41 41 41 42 42
46 45 46 45 45 45 45 46 45 45 45 44 43 42 40 40 41 40 39 39 39 38 37 37 36 37 37 37 38 38 38 38 38 39 40 40 41 41 41 42 42 42 41
46 45 46 46 45 44 44 45 45 44 45 45 44 42 41 40 39 39 39 38 37 37 37 36 37 37 36 36 36 37 37 37 38 39 39 40 41 41 42 42 41 41 40
43 44 44 44 45 44 44 45 44 44 44 45 44 42 41 40 39 38 37 37 37 36 35 36 37 37 36 35 36 37 37 37 38 38 39 39 40 40 41 40 40 40 39
41 43 45 44 44 45 44 44 43 44 44 43 42 40 40 40 39 38 37 37 36 36 37 37 37 37 37 37 36 36 37 38 39 39 39 39 39 39 39 39 39 39 38
41 42 43 43 43 44 43 42 43 43 43 42 41 40 39 39 39 38 37 36 35 36 37 36 36 37 38 37 36 37 37 38 38 38 39 39 39 38 38 38 38 37 37
40 41 42 42 41 41 41 40 40 41 42 41 40 39 39 38 38 37 35 35 35 36 36 36 36 36 37 38 38 38 38 37 37 38 37 37 37 37 37 36 36 36 36
38 38 39 39 39 39 40 40 38 39 40 40 39 39 38 38 38 37 36 35 35 36 36 36 35 35 35 37 37 37 36 36 36 36 36 36 36 36 35 34 35 35 35
37 36 36 38 38 38 38 38 36 37 38 39 38 38 39 38 39 39 38 36 36 36 36 37 36 36 35 35 36 36 36 36 35 34 34 33 34 34 34 35 35 35 35
35 35 35 35 36 36 36 35 35 35 36 36 37 38 39 38 38 38 38 37 38 37 36 36 36 35 35 35 35 36 35 35 34 33 33 33 34 34 34 34 35 34 34
33 33 33 33 34 34 35 35 34 34 35 35 36 38 38 37 36 37 38 37 37 37 37 36 35 36 36 35 34 34 34 34 33 33 32 32 33 33 34 34 33 33 34
33 32 32 32 32 33 33 34 34 33 34 35 35 35 36 36 35 37 37 36 36 36 35 34 34 35 35 33 34 34 34 33 32 32 32 32 32 32 32 32 32 33 33
30 29 30 31 31 32 32 32 33 33 34 34 34 33 35 35 34 34 35 35 35 34 33 34 34 33 33 33 33 33 32 31 31 31 31 31 31 30 29 29 30 30 31

GEFSMA_500_meanwind_270.txt.gz
Wind_Speed
41 41 39 39 38 39 38 37 37 36 36 35 34 34 33 33 32 31 31 31 30 30 31 31 30 30 29 29 30 30 30 30 30 30 30 31 32 32 33 33 34 34 34
43 42 41 41 40 40 40 40 39 38 37 36 36 35 35 34 34 33 32 32 31 31 31 31 31 31 31 30 30 30 31 31 31 31 32 33 33 33 34 35 35 35 35
45 43 42 42 42 42 42 41 41 40 40 38 38 37 36 36 35 35 34 33 32 32 32 31 31 31 32 31 30 31 32 32 32 32 33 34 34 35 35 36 36 37 36
45 44 44 43 44 43 43 43 43 41 41 40 40 39 38 37 36 36 35 34 33 33 32 33 33 32 33 32 32 32 33 34 34 34 34 35 35 36 36 37 38 37 37
47 46 44 44 44 44 43 43 43 42 41 40 40 40 40 39 38 37 37 36 35 34 33 33 33 33 34 34 33 33 34 34 34 35 35 36 36 37 37 38 38 38 38
48 47 46 45 44 43 43 43 44 44 43 41 41 41 41 41 40 39 38 38 37 36 35 35 34 34 34 34 34 34 34 34 35 35 36 37 37 37 37 38 38 38 38
48 47 47 46 45 44 43 43 44 43 44 43 42 42 41 40 40 39 39 38 38 37 36 36 36 36 36 35 35 34 35 36 37 37 37 38 38 38 38 38 38 38 39
49 48 47 46 44 45 45 44 43 42 43 44 43 42 41 40 39 39 39 39 37 37 37 37 37 37 37 37 37 37 37 37 38 38 38 38 39 39 38 38 39 39 39
49 48 47 46 46 46 45 45 43 43 43 43 43 42 41 40 39 39 39 39 38 38 38 38 38 38 37 37 37 38 38 38 38 38 38 38 39 39 39 39 39 40 40
48 47 47 47 46 45 45 45 45 44 43 43 43 42 41 40 39 38 38 39 39 39 39 39 39 38 38 37 37 38 38 38 38 38 38 38 39 39 39 39 40 40 40
46 46 47 47 47 46 46 47 46 46 43 43 43 42 41 41 40 38 39 39 40 39 40 40 40 39 38 37 37 38 38 38 37 38 38 38 39 40 40 40 40 40 40
46 47 47 47 47 47 47 48 48 47 45 45 44 44 43 42 41 40 40 40 40 40 40 39 39 39 38 37 37 37 38 38 37 38 39 39 40 40 40 40 40 40 40
45 45 47 47 46 45 45 46 47 48 47 46 45 44 44 44 43 42 41 40 41 41 40 39 40 39 39 38 37 37 38 38 38 38 39 39 39 39 39 39 40 40 39
44 43 44 45 45 44 44 45 46 47 47 46 46 45 44 44 45 44 42 42 42 42 41 40 41 40 39 38 37 38 38 38 38 39 39 39 39 39 39 39 39 39 38
44 43 43 45 45 44 44 44 45 46 47 46 45 45 44 44 45 44 43 42 42 41 41 40 40 40 39 38 38 38 38 38 38 39 38 38 38 38 37 37 37 37 37
42 43 44 44 45 45 44 43 44 45 47 46 45 44 43 43 43 44 44 42 41 41 40 40 39 39 39 38 38 38 38 39 39 39 38 38 37 37 36 35 35 36 37
42 43 43 44 45 46 45 44 44 44 46 47 45 43 43 43 43 43 43 44 43 42 40 39 38 39 38 38 38 39 38 39 39 38 37 37 37 36 35 35 35 36 37
38 38 40 41 42 44 45 44 45 45 45 45 45 44 42 42 42 42 42 43 42 41 40 39 38 38 37 38 38 38 38 38 38 37 37 37 36 34 34 35 35 36 36
37 37 38 39 41 42 43 44 44 43 43 43 43 44 44 42 40 41 42 42 42 42 42 41 40 38 37 38 37 38 38 38 38 37 37 36 35 34 35 35 35 35 36
35 36 37 37 39 40 42 42 42 41 41 41 42 43 44 43 41 41 41 42 42 41 41 41 40 39 37 37 38 38 38 38 38 36 36 35 34 35 35 35 35 35 36
34 35 35 36 37 38 39 39 40 40 40 41 41 42 43 43 42 41 41 40 40 40 39 40 40 39 38 37 37 38 39 38 36 35 35 35 34 34 35 35 35 35 35
34 34 34 34 33 34 35 35 37 38 39 39 40 40 40 40 41 40 40 39 39 38 39 41 40 39 38 38 38 38 37 35 35 35 34 34 34 34 35 35 34 34 34
33 32 32 32 32 32 33 34 34 36 37 38 39 38 38 38 39 39 38 38 38 38 39 40 40 38 38 38 37 37 36 35 34 34 33 33 33 34 35 34 35 35 34
29 30 30 31 32 31 32 33 33 34 34 35 35 35 35 35 35 35 35 35 35 35 37 38 38 38 38 38 37 36 34 34 34 33 33 33 33 33 34 34 34 34 33
29 29 29 30 30 32 32 33 33 32 32 32 32 33 33 32 33 33 34 34 34 34 35 35 35 36 36 35 35 34 33 32 32 32 32 32 32 32 32 32 32 32 31
27 28 28 29 30 31 32 32 33 32 31 31 31 31 31 32 33 33 34 34 34 34 34 34 34 35 35 34 34 34 34 32 31 31 30 30 30 30 30 30 29 29 29

GEFSMA_500_meanwind_276.txt.gz
Wind_Speed
41 41 41 41 40 39 39 39 38 39 39 39 38 38 37 36 35 35 34 34 33 33 32 32 31 30 30 30 30 30 30 30 29 29 29 29 31 31 31 31 32 33 33
43 43 43 43 42 42 41 40 39 40 40 40 40 40 39 39 38 37 36 36 35 34 34 33 32 32 32 32 32 32 31 31 30 30 30 31 31 32 33 33 33 34 35
44 44 44 44 44 44 43 43 42 41 42 42 42 42 42 41 40 39 37 37 37 37 36 35 35 34 33 33 32 32 31 31 32 32 32 32 33 33 34 34 35 36 36
45 44 45 45 45 45 45 44 44 43 43 43 43 43 43 42 41 41 39 38 38 38 37 37 36 35 35 33 33 33 33 32 33 33 33 34 34 35 35 36 36 37 37
46 46 45 46 46 46 46 46 45 44 44 44 44 44 44 43 43 42 41 40 39 38 37 38 37 36 36 35 34 34 34 33 34 35 35 35 35 36 37 37 37 38 38
48 48 48 48 48 48 48 47 46 44 44 44 44 45 44 44 43 43 42 40 39 39 39 39 38 37 37 37 36 35 35 35 35 36 36 37 37 37 38 38 39 39 39
48 47 48 48 49 49 48 48 47 45 44 44 44 44 44 45 44 44 42 41 40 40 39 40 40 40 39 39 37 37 36 37 37 38 38 38 39 39 40 39 39 39 39
48 48 48 48 49 49 48 48 47 46 46 46 46 46 45 44 43 44 44 42 41 41 41 41 41 41 40 39 38 38 38 38 39 39 39 39 40 40 40 39 39 39 39
49 50 49 49 49 49 48 48 48 48 46 46 47 46 45 44 44 44 44 43 42 41 40 40 40 40 41 40 39 39 39 39 40 39 39 39 40 40 40 39 39 38 38
48 48 48 49 49 49 49 49 49 48 47 47 48 46 45 45 44 44 44 43 43 43 42 40 40 41 41 41 40 40 40 40 40 39 39 39 39 40 40 39 39 39 38
46 46 46 47 48 49 49 49 49 48 48 48 48 47 45 43 43 44 44 43 42 42 42 42 41 41 41 41 41 41 41 40 39 39 38 39 39 39 40 39 39 39 39
45 46 46 46 48 48 48 48 49 48 49 48 48 47 47 46 44 43 43 42 42 42 42 42 42 41 41 41 41 41 40 39 38 38 38 38 39 39 40 39 39 39 39
44 44 45 46 46 47 47 47 48 48 49 47 47 47 47 46 45 44 44 43 43 43 43 42 42 42 42 41 42 41 40 39 38 38 38 38 38 39 39 38 38 38 38
44 45 45 45 46 47 48 47 47 48 48 47 46 46 47 46 47 46 45 45 44 43 43 42 43 42 43 43 42 41 40 39 39 39 39 39 39 38 39 38 38 37 37
43 44 45 45 45 47 47 46 45 46 46 46 45 45 46 47 46 46 46 46 46 44 44 42 43 43 42 43 42 41 40 40 39 38 39 39 39 39 38 38 38 37 37
45 44 44 44 44 46 46 47 45 45 45 45 44 44 45 46 46 45 44 44 44 44 43 42 43 43 42 42 43 43 41 40 40 39 39 40 40 38 38 38 37 38 38
43 43 44 43 43 44 45 45 46 45 44 44 44 44 44 44 44 44 43 43 44 43 43 42 42 41 42 42 43 42 40 40 40 40 40 40 39 38 38 38 38 39 39
41 42 43 43 42 42 42 43 43 43 43 44 44 44 44 44 43 43 43 42 43 43 42 41 40 40 41 42 43 42 40 40 41 41 40 39 39 39 38 39 39 39 39
37 38 39 39 40 40 40 40 40 41 42 43 44 44 44 44 43 43 43 43 43 43 41 41 40 40 40 41 41 41 40 40 40 40 39 39 38 38 38 39 39 38 38
35 36 36 35 37 37 37 38 39 40 41 41 42 42 43 43 43 43 44 43 42 42 41 40 39 39 39 39 40 40 38 38 38 38 38 38 38 38 38 37 37 37 36
33 34 34 34 34 36 36 37 37 38 39 39 40 41 42 42 42 42 43 42 41 41 41 39 38 38 38 38 38 38 37 36 37 37 37 38 38 38 37 38 37 36 35
31 32 32 33 33 34 35 35 36 36 37 37 38 39 40 40 40 41 41 41 40 39 40 39 38 38 37 37 36 37 37 37 37 37 37 37 37 37 37 36 35 35 34
29 30 30 31 31 32 33 34 34 35 35 35 36 37 38 38 39 38 38 38 38 37 38 38 38 37 36 36 36 36 36 36 35 35 36 36 36 36 36 35 34 34 33
28 28 28 29 30 30 30 30 31 32 32 33 33 34 35 36 37 37 36 35 36 36 36 37 36 36 35 35 35 35 34 33 32 32 33 33 34 34 35 34 34 32 31
26 26 26 27 27 27 28 29 30 30 30 31 31 32 33 34 35 35 35 35 36 36 35 35 36 35 35 35 35 33 32 32 32 32 32 32 33 33 33 33 33 31 30
24 24 25 26 26 27 28 29 30 29 29 30 31 31 32 32 33 33 33 33 33 33 33 34 34 34 33 33 33 32 31 32 32 32 32 31 31 31 31 30 30 29 28